Orbital Elements at Epoch 2459200.5 (2020-Dec-17.0) TDB
Reference: JPL 15 (heliocentric ecliptic J2000)
Element | Value | Uncertainty (1-sigma) | Units |
e | .1260610365456598 | 4.2405e-08 | |
a | 2.310773549001418 | 1.4994e-08 | au |
q | 2.019475040192007 | 9.7442e-08 | au |
i | 7.601693708804559 | 4.1038e-06 | deg |
node | 93.7733560583977 | 3.7935e-05 | deg |
peri | 206.9882443197669 | 4.3918e-05 | deg |
M | 141.0869777557321 | 2.0071e-05 | deg |
tp | 2458697.672596729344 (2019-Aug-02.17259673) | 7.1895e-05 | TDB |
period | 1283.023196448632 3.51 | 1.2487e-05 3.419e-08 | d yr |
n | .2805872886760495 | 2.7309e-09 | deg/d |
Q | 2.60207205781083 | 1.6884e-08 | au |
|
| | Orbit Determination Parameters
Additional Information
|